Weather reports worldwide

Advertisment
Artern, Germany (10460): temperature & dewpoint: 11.09.2019 23:00:00 - 17.09.2019 23:00:00 (CEST)Artern, Germany (10460): temperature 5cm & temperature -5cm: 11.09.2019 23:00:00 - 17.09.2019 23:00:00 (CEST)Artern, Germany (10460): temperature -20cm & temperature -100cm: 11.09.2019 23:00:00 - 17.09.2019 23:00:00 (CEST)Artern, Germany (10460): wind speed & gusts: 11.09.2019 23:00:00 - 17.09.2019 23:00:00 (CEST)Artern, Germany (10460): wind direction: 11.09.2019 23:00:00 - 17.09.2019 23:00:00 (CEST)Artern, Germany (10460): reduced air pressure: 11.09.2019 23:00:00 - 17.09.2019 23:00:00 (CEST)Artern, Germany (10460): visibility: 11.09.2019 23:00:00 - 17.09.2019 23:00:00 (CEST)Artern, Germany (10460): sunshine duration: 11.09.2019 23:00:00 - 17.09.2019 23:00:00 (CEST)Artern, Germany (10460): precipitation: 11.09.2019 23:00:00 - 17.09.2019 23:00:00 (CEST)
Date & Time tt [°C] td [°C] tt 5cm [°C] tt -5cm [°C] tt -20cm [°C] tt -100cm [°C] ff [km/h] ff [kn] fx [km/h] fx [kn] dd ppp [hPa] vv [km] sd [min] rr [mm]
17.09.2019 23:00:00 9,5 4,7 8,2 11,0 15,0 17,1 11 6 24 13 W 1020,8 58 0 0,0
17.09.2019 22:00:00 10,4 5,1 9,0 11,6 15,1 17,1 12 7 26 14 W 1020,0 59 0 0,0
17.09.2019 21:00:00 11,1 6,1 9,8 12,4 15,3 17,1 14 7 24 13 W 1019,5 56 0 0,0
17.09.2019 20:00:00 11,6 8,4 11,1 13,0 15,3 17,1 17 9 24 13 WSW 1018,4 54 0 0,0
17.09.2019 19:00:00 12,7 9,3 12,1 13,9 15,3 17,1 15 8 32 17 WSW 1017,7 51 21 0,0
17.09.2019 18:00:00 13,9 7,6 14,4 14,4 15,3 17,1 23 12 37 20 W 1017,1 60 40 0,0
17.09.2019 17:00:00 13,8 9,1 13,7 14,5 15,3 17,1 20 11 61 33 WNW 1016,8 59 7 0,0
17.09.2019 16:00:00 15,9 6,7 15,6 15,1 15,1 17,1 26 14 47 25 W 1016,0 68 21 0,0
17.09.2019 15:00:00 16,7 7,0 18,8 15,1 15,0 17,1 29 16 53 29 W 1015,9 45 17 0,0
17.09.2019 14:00:00 16,1 7,5 17,6 15,5 14,8 17,1 19 10 45 25 W 1016,6 58 28 0,0
17.09.2019 13:00:00 15,4 7,7 17,4 14,8 14,8 17,1 27 15 44 24 W 1017,1 47 26 0,0
17.09.2019 12:00:00 14,0 7,3 14,4 13,9 14,7 17,1 26 14 46 25 W 1017,8 52 11 0,0
17.09.2019 11:00:00 13,4 7,4 13,7 13,5 14,7 17,1 26 14 41 22 W 1018,0 58 9 0,0
17.09.2019 10:00:00 12,7 8,7 12,0 13,1 14,7 17,1 20 11 37 20 W 1018,4 44 27 0,0
17.09.2019 09:00:00 11,2 9,4 11,8 11,9 14,9 17,1 8 4 16 8 SW 1018,3 27 42 0,0
17.09.2019 08:00:00 10,0 8,7 9,0 10,9 15,1 17,2 10 5 21 11 W 1018,7 25 20 0,0
17.09.2019 07:00:00 9,4 8,3 7,7 11,1 15,3 17,2 7 4 17 9 W 1018,5 22 0 0,0
17.09.2019 06:00:00 9,4 8,4 7,5 11,6 15,5 17,2 6 4 15 8 NW 1018,8 22 0 0,0
17.09.2019 05:00:00 10,3 9,3 8,3 12,2 15,7 17,2 6 3 9 5 WSW 1018,5 22 0 0,0
17.09.2019 04:00:00 10,4 9,7 9,3 12,6 15,8 17,2 4 2 15 8 WSW 1018,8 18 0 0,0
17.09.2019 03:00:00 10,4 9,5 9,5 12,9 16,0 17,2 3 2 9 5 NW 1019,1 33 0 0,0
17.09.2019 02:00:00 11,0 10,0 10,3 13,3 16,1 17,2 5 3 10 6 W 1019,1 32 0 0,0
17.09.2019 01:00:00 11,5 10,7 11,0 13,5 16,3 17,2 5 3 10 6 W 1019,2 30 0 0,0
17.09.2019 00:00:00 11,5 10,7 10,4 13,6 16,5 17,2 5 3 9 5 W 1019,3 32 0 0,0
16.09.2019 23:00:00 12,3 11,5 11,1 14,4 16,6 17,2 5 3 7 4 W 1019,1 37 0 0,0
16.09.2019 22:00:00 12,5 11,5 12,1 14,8 16,7 17,2 0 0 5 3 N 1019,0 50 0 0,0
16.09.2019 21:00:00 12,5 11,9 12,4 15,0 16,8 17,2 4 2 8 4 S 1018,9 29 0 0,0
16.09.2019 20:00:00 12,3 11,7 12,3 15,2 16,9 17,2 6 3 10 5 E 1018,5 41 0 0,0
16.09.2019 19:00:00 12,6 11,9 12,6 15,5 17,0 17,2 9 5 16 9 NE 1018,4 65 0 0,2
16.09.2019 18:00:00 12,9 12,4 13,1 15,8 17,0 17,2 12 6 16 9 ENE 1018,4 6 0 0,7
16.09.2019 17:00:00 13,0 12,6 13,2 16,0 17,1 17,2 12 7 18 10 ENE 1018,4 8 0 0,5
16.09.2019 16:00:00 13,0 12,5 13,3 16,6 17,1 17,2 13 7 18 10 ENE 1018,4 5 0 1,2
16.09.2019 15:00:00 14,6 13,5 15,2 17,4 17,0 17,2 6 4 9 5 NE 1018,4 10 0 0,1
16.09.2019 14:00:00 14,0 13,2 14,6 17,0 17,0 17,2 4 2 9 5 NE 1018,8 9 0 0,7
16.09.2019 13:00:00 14,1 12,5 14,2 16,9 17,0 17,2 5 3 8 4 NE 1019,4 26 0 0,5
16.09.2019 12:00:00 14,0 12,0 14,1 16,7 16,9 17,2 4 2 8 4 ESE 1019,8 21 0 0,7
16.09.2019 11:00:00 14,2 11,9 13,8 16,6 17,0 17,2 4 2 8 5 E 1020,1 12 0 0,8
16.09.2019 10:00:00 14,4 11,3 13,7 16,1 17,0 17,2 2 1 8 4 E 1020,2 26 0 0,3
16.09.2019 09:00:00 14,6 9,9 15,0 15,9 17,1 17,2 5 3 10 5 W 1020,3 54 0 0,0
16.09.2019 08:00:00 14,1 10,5 13,8 15,7 17,2 17,2 4 2 6 4 E 1020,4 51 0 0,0
16.09.2019 07:00:00 13,9 11,2 12,8 15,7 17,3 17,2 5 3 6 4 SE 1020,1 68 0 0,0
16.09.2019 06:00:00 14,2 11,4 13,1 16,1 17,4 17,2 0 0 8 5 N 1020,3 72 0 0,0
16.09.2019 05:00:00 14,5 11,7 14,4 16,2 17,5 17,2 3 2 18 10 SE 1020,5 70 0 0,0
16.09.2019 04:00:00 14,8 11,8 14,7 16,4 17,6 17,2 14 8 23 13 NNE 1020,6 70 0 0,0
16.09.2019 03:00:00 15,7 12,8 15,5 16,4 17,8 17,2 12 7 16 9 NNE 1020,4 50 0 0,0
16.09.2019 02:00:00 15,9 11,1 15,1 16,2 18,0 17,2 10 5 15 8 NNE 1020,0 67 0 0,0
16.09.2019 01:00:00 16,3 4,6 13,4 16,5 18,2 17,2 3 2 9 5 NE 1020,0 75 0 0,0
16.09.2019 00:00:00 16,9 4,1 14,3 16,6 18,4 17,2 8 4 19 10 WSW 1020,0 73 0 0,0
15.09.2019 23:00:00 17,5 3,6 14,6 17,1 18,6 17,2 5 3 22 12 W 1019,8 75 0 0,0
15.09.2019 22:00:00 18,3 1,8 16,0 17,7 18,8 17,3 10 5 25 13 WNW 1019,7 75 0 0,0
15.09.2019 21:00:00 20,4 0,9 18,1 18,6 18,9 17,3 17 9 25 13 NW 1019,6 75 0 0,0
15.09.2019 20:00:00 21,5 1,8 19,2 19,8 18,8 17,3 16 8 24 13 WNW 1019,1 74 9 0,0
15.09.2019 19:00:00 23,4 6,4 21,8 21,4 18,7 17,3 14 8 30 16 WNW 1018,7 75 60 0,0
15.09.2019 18:00:00 24,2 4,0 24,7 22,4 18,4 17,3 19 10 35 19 W 1018,7 74 25 0,0
15.09.2019 17:00:00 24,4 2,2 24,9 23,6 17,9 17,3 20 11 36 19 W 1019,1 75 48 0,0
15.09.2019 16:00:00 24,8 4,6 26,6 24,1 17,4 17,3 16 9 32 18 W 1019,7 50 57 0,0
15.09.2019 15:00:00 24,4 6,0 26,2 24,0 16,8 17,3 18 10 34 18 WNW 1020,3 66 56 0,0
15.09.2019 14:00:00 24,5 7,2 28,0 23,6 16,2 17,3 15 8 31 17 WNW 1020,8 69 60 0,0
15.09.2019 13:00:00 23,3 8,6 26,4 22,6 15,7 17,3 15 8 27 14 WSW 1021,5 75 60 0,0
15.09.2019 12:00:00 20,6 10,1 24,2 20,5 15,3 17,3 12 7 22 12 WSW 1022,4 56 60 0,0
15.09.2019 11:00:00 17,9 9,7 21,9 17,4 15,1 17,3 10 6 18 10 WSW 1022,7 62 60 0,0
15.09.2019 10:00:00 14,4 8,4 17,3 14,4 15,2 17,3 10 6 16 8 SW 1023,8 50 60 0,0
15.09.2019 09:00:00 9,7 6,4 12,0 11,9 15,4 17,3 6 3 10 5 WSW 1024,7 40 59 0,0
15.09.2019 08:00:00 7,6 6,0 7,1 11,0 15,6 17,3 8 4 10 6 WSW 1024,9 43 17 0,0
15.09.2019 07:00:00 6,7 5,3 4,6 11,1 15,9 17,3 5 3 10 5 SW 1025,0 45 0 0,0
15.09.2019 06:00:00 7,4 5,8 5,3 11,4 16,2 17,3 6 3 9 5 SW 1025,5 47 0 0,0
15.09.2019 05:00:00 8,2 5,4 5,7 11,8 16,6 17,3 5 3 6 3 WNW 1026,1 60 0 0,0
15.09.2019 04:00:00 7,9 5,1 5,0 12,3 16,9 17,3 6 3 8 4 N 1026,4 65 0 0,0
15.09.2019 03:00:00 8,4 5,6 5,4 12,8 17,2 17,3 3 1 6 3 NNW 1027,0 53 0 0,0
15.09.2019 02:00:00 9,3 6,0 7,0 13,4 17,6 17,3 5 3 7 4 WNW 1027,6 49 0 0,0
15.09.2019 01:00:00 9,8 6,6 6,4 14,0 17,9 17,3 3 1 8 4 SSE 1028,6 59 0 0,0
15.09.2019 00:00:00 11,9 6,6 7,4 14,7 18,3 17,3 3 1 10 5 E 1029,4 66 0 0,0
14.09.2019 23:00:00 12,1 6,0 8,4 15,5 18,6 17,4 7 4 13 7 ESE 1029,2 67 0 0,0
14.09.2019 22:00:00 14,1 6,1 10,6 16,5 18,8 17,4 9 5 11 6 SSE 1030,0 50 0 0,0
14.09.2019 21:00:00 14,1 5,7 10,2 17,8 19,0 17,4 9 5 12 6 E 1030,5 67 0 0,0
14.09.2019 20:00:00 15,2 6,8 11,7 19,3 19,0 17,4 8 4 12 6 E 1030,3 69 0 0,0
14.09.2019 19:00:00 16,9 7,1 16,2 20,9 18,9 17,4 10 5 13 7 E 1030,1 66 3 0,0
14.09.2019 18:00:00 18,3 5,9 19,2 22,7 18,6 17,4 8 5 14 8 NE 1030,5 64 42 0,0
14.09.2019 17:00:00 18,9 6,0 23,7 24,6 18,1 17,4 9 5 15 8 ENE 1031,0 56 60 0,0
14.09.2019 16:00:00 18,9 5,9 25,5 25,3 17,5 17,4 8 4 15 8 E 1031,9 55 60 0,0
14.09.2019 15:00:00 18,8 6,2 24,8 25,0 16,9 17,4 10 6 19 11 NE 1032,4 42 59 0,0
14.09.2019 14:00:00 18,0 4,5 23,5 24,1 16,3 17,4 6 3 17 9 ENE 1033,2 75 60 0,0
14.09.2019 13:00:00 17,5 5,9 22,7 22,5 15,8 17,4 4 2 16 9 NE 1034,0 59 60 0,0
14.09.2019 12:00:00 16,4 7,2 21,3 20,1 15,5 17,4 11 6 21 11 ENE 1034,7 45 60 0,0
14.09.2019 11:00:00 15,2 7,6 21,1 17,5 15,3 17,4 9 5 16 8 NE 1034,9 56 60 0,0
14.09.2019 10:00:00 13,2 7,5 17,4 14,8 15,3 17,4 8 4 10 6 NE 1035,0 44 60 0,0
14.09.2019 09:00:00 11,8 6,7 15,5 12,4 15,5 17,4 4 2 6 3 NNE 1035,3 45 60 0,0
14.09.2019 08:00:00 9,4 6,9 8,0 11,1 15,8 17,4 2 1 8 4 WNW 1035,4 49 20 0,0
14.09.2019 07:00:00 8,2 6,4 4,5 11,3 16,1 17,4 4 2 8 4 N 1035,4 48 0 0,0
14.09.2019 06:00:00 8,8 6,4 5,2 12,1 16,4 17,4 8 4 14 8 NNE 1035,0 51 0 0,0
14.09.2019 05:00:00 9,8 6,7 6,4 12,8 16,6 17,4 9 5 12 6 NE 1034,7 55 0 0,0
14.09.2019 04:00:00 11,1 6,9 9,6 13,4 16,9 17,4 9 5 13 7 NE 1035,1 61 0 0,0
14.09.2019 03:00:00 11,2 6,8 8,4 13,9 17,1 17,5 9 5 11 6 NNE 1034,9 65 0 0,0
14.09.2019 02:00:00 12,3 6,6 8,5 14,4 17,3 17,5 7 4 15 8 NE 1034,8 63 0 0,0
14.09.2019 01:00:00 13,5 7,0 11,2 15,3 17,5 17,5 11 6 17 9 NE 1034,7 69 0 0,0
14.09.2019 00:00:00 14,7 8,0 13,7 15,9 17,7 17,5 12 7 27 15 NNE 1034,3 62 0 0,0
13.09.2019 23:00:00 16,2 8,5 15,5 16,5 17,8 17,5 15 8 26 14 N 1033,7 69 0 0,0
13.09.2019 22:00:00 17,2 9,2 16,4 17,0 17,9 17,5 16 9 25 13 N 1032,9 70 0 0,0
13.09.2019 21:00:00 18,2 10,4 17,4 17,6 17,9 17,5 12 6 20 11 N 1032,4 75 0 0,0
13.09.2019 20:00:00 18,8 11,4 17,8 18,2 17,9 17,5 10 5 20 11 N 1031,6 73 0 0,0
13.09.2019 19:00:00 19,9 11,6 19,0 19,0 17,9 17,5 13 7 24 13 NNW 1030,8 72 19 0,0
13.09.2019 18:00:00 19,7 13,4 19,7 19,4 17,8 17,5 7 4 19 11 NNW 1030,7 75 0 0,0
13.09.2019 17:00:00 19,1 13,0 20,0 19,8 17,6 17,5 14 8 37 20 NW 1030,8 60 0 0,0
13.09.2019 16:00:00 20,0 15,4 21,6 20,5 17,3 17,5 11 6 27 14 N 1030,4 46 0 0,0
13.09.2019 15:00:00 21,0 14,2 20,9 21,2 16,9 17,5 14 8 30 16 W 1029,8 51 1 0,0
13.09.2019 14:00:00 21,8 14,4 25,3 21,9 16,7 17,5 17 9 31 17 WSW 1029,7 48 30 0,0
13.09.2019 13:00:00 19,6 14,4 20,4 18,2 16,5 17,5 17 9 35 19 WSW 1029,9 63 0 0,0
13.09.2019 12:00:00 19,5 14,2 20,3 17,6 16,4 17,5 23 12 35 19 W 1029,7 57 0 0,0
13.09.2019 11:00:00 19,2 14,1 19,4 17,3 16,3 17,6 22 12 31 17 WSW 1029,5 63 0 0,0
13.09.2019 10:00:00 18,5 14,0 19,2 16,6 16,2 17,6 15 8 27 14 SW 1029,1 55 0 0,0
13.09.2019 09:00:00 17,5 13,5 17,7 15,6 16,3 17,6 14 7 26 14 SW 1028,9 62 0 0,0
13.09.2019 08:00:00 16,7 13,3 16,2 14,9 16,3 17,6 13 7 23 12 SW 1028,7 75 0 0,0
13.09.2019 07:00:00 15,5 12,9 14,9 14,5 16,5 17,6 13 7 20 11 SSW 1028,7 64 0 0,0
13.09.2019 06:00:00 15,1 12,9 13,5 14,1 16,7 17,6 9 5 18 10 SW 1028,2 67 0 0,0
13.09.2019 05:00:00 15,0 12,9 12,3 13,9 16,9 17,6 10 5 16 9 SSW 1028,2 75 0 0,0
13.09.2019 04:00:00 14,5 12,6 10,9 14,1 17,1 17,6 7 4 10 6 SSW 1028,5 71 0 0,0
13.09.2019 03:00:00 15,0 12,9 11,3 14,5 17,3 17,6 5 3 11 6 WSW 1028,6 72 0 0,0
13.09.2019 02:00:00 15,1 12,9 11,5 15,1 17,5 17,6 7 4 13 7 SW 1028,5 75 0 0,0
13.09.2019 01:00:00 16,0 13,0 13,7 15,7 17,7 17,6 9 5 24 13 SW 1028,4 75 0 0,0
13.09.2019 00:00:00 17,2 13,0 15,7 16,1 17,9 17,7 14 7 21 12 SW 1028,2 75 0 0,0
12.09.2019 23:00:00 17,4 12,9 15,2 16,6 18,1 17,7 11 6 20 11 SW 1028,2 75 0 0,0
12.09.2019 22:00:00 18,0 12,9 16,0 17,3 18,2 17,7 11 6 20 11 SW 1028,2 75 0 0,0
12.09.2019 21:00:00 19,4 12,6 17,6 18,0 18,3 17,7 14 8 21 12 WSW 1027,9 75 0 0,0
12.09.2019 20:00:00 20,1 12,0 18,6 18,8 18,3 17,7 14 8 26 14 WSW 1027,7 75 15 0,0
12.09.2019 19:00:00 22,2 11,4 20,8 20,1 18,2 17,7 18 10 35 19 WSW 1027,2 75 53 0,0
12.09.2019 18:00:00 22,6 10,8 21,8 21,3 18,0 17,7 18 10 35 19 WSW 1026,9 75 35 0,0
12.09.2019 17:00:00 24,0 10,2 25,6 21,7 17,7 17,7 21 11 33 18 WSW 1026,9 70 15 0,0
12.09.2019 16:00:00 24,0 11,7 26,7 22,5 17,3 17,7 13 7 23 13 SW 1027,0 57 34 0,0
12.09.2019 15:00:00 22,5 12,6 24,5 22,0 17,0 17,8 12 7 22 12 WSW 1027,6 75 22 0,0
12.09.2019 14:00:00 21,5 12,6 23,1 22,3 16,6 17,8 13 7 22 12 WSW 1028,1 63 33 0,0
12.09.2019 13:00:00 20,4 13,1 23,4 20,1 16,2 17,8 14 8 27 15 WSW 1028,2 50 23 0,0
12.09.2019 12:00:00 19,0 13,1 20,3 18,7 16,0 17,8 17 9 27 15 WSW 1028,3 75 9 0,0
12.09.2019 11:00:00 17,7 12,9 20,1 17,8 15,9 17,8 14 7 23 12 SW 1028,2 58 7 0,0
12.09.2019 10:00:00 16,6 13,2 19,6 15,8 15,8 17,8 13 7 29 16 SW 1027,9 63 4 0,0
12.09.2019 09:00:00 15,6 12,7 16,1 15,2 15,8 17,8 6 3 11 6 SW 1027,3 46 0 0,0
12.09.2019 08:00:00 14,7 12,4 14,4 14,6 15,9 17,8 4 2 11 6 W 1026,9 50 0 0,0
12.09.2019 07:00:00 14,2 12,5 13,3 14,4 16,0 17,9 7 4 14 8 WSW 1026,2 60 0 0,0
12.09.2019 06:00:00 14,0 12,7 13,3 14,4 16,1 17,9 11 6 27 15 WSW 1025,9 54 0 0,1
12.09.2019 05:00:00 14,8 11,7 14,4 14,4 16,1 17,9 12 7 20 11 WSW 1025,6 73 0 0,0
12.09.2019 04:00:00 14,7 11,5 14,4 14,5 16,2 17,9 13 7 24 13 WSW 1025,4 67 0 0,0
12.09.2019 03:00:00 14,6 11,8 14,3 14,6 16,4 17,9 16 8 29 16 SW 1024,7 61 0 0,0
12.09.2019 02:00:00 15,3 11,5 14,9 14,7 16,5 17,9 19 10 34 18 WSW 1024,5 72 0 0,0
12.09.2019 01:00:00 15,9 10,9 15,3 14,8 16,6 17,9 19 10 32 17 WSW 1024,3 75 0 0,0
12.09.2019 00:00:00 16,9 9,6 16,0 14,9 16,8 18,0 14 7 27 15 W 1023,7 70 0 0,0
11.09.2019 23:00:00 17,2 8,2 15,9 15,2 16,9 18,0 13 7 18 10 SW 1023,2 75 0 0,0

tt = temperature
td = dewpoint
tt 5cm = temperature 5cm
tt -5cm = temperature -5cm
tt -20cm = temperature -20cm
tt -100cm = temperature -100cm
ff = wind speed
fx = gusts
dd = wind direction
ppp = reduced air pressure
vv = visibility
sd = sunshine duration
rr = precipitation

Next stations